Regional Weather Roundup
Issued by NWS Lake Charles, LA

Home | Current Version | Previous Version | Text Only | Print | Product List | Glossary On
Versions: 1 2 3 4 5 6 7 8 9 10 11 12 13 14 15 16 17 18 19 20 21 22 23 24 25 26 27 28 29 30 31 32 33 34 35 36 37 38 39 40 41 42 43 44 45 46 47 48 49 50
000
ASUS44 KLCH 190610
RWRLCH
RWRLCH
REGIONAL WEATHER ROUNDUP
NATIONAL WEATHER SERVICE LAKE CHARLES LA
1200 AM CST FRI DEC 19 2014

Note: "fair" indicates few or no clouds below 12,000 feet with no
significant weather and/or obstructions to visibility.


ACROSS SOUTHEAST TEXAS

CITY           SKY/WX    TMP DP  RH WIND       PRES   REMARKS
BEAUMONT       CLOUDY    58  56  93 NE13      30.03F FOG
BEAUMONT CITY  CLOUDY    56  56  97 E7        30.04F FOG
ORANGE         CLOUDY    57  55  92 NE7       30.07F
JASPER         LGT RAIN  52  51  96 NE5       30.11F
$$

ACROSS CENTRAL LOUISIANA

CITY           SKY/WX    TMP DP  RH WIND       PRES   REMARKS
LEESVILLE      CLOUDY    52  50  93 NE8       30.10F FOG
FULLERTON      CLOUDY    53  50  89 VRB3      30.09F FOG
ALEXANDRIA INT CLOUDY    51  50  96 N5        30.13S FOG
ESLER FIELD    CLOUDY    52  50  93 NE3       30.14F
DERIDDER       CLOUDY    53  51  95 NE3       30.12F FOG
OAKDALE        CLOUDY    53  51  94 NE5       30.11S FOG
OPELOUSAS      CLOUDY    54  52  94 NE5       30.10F
$$

ACROSS SOUTHWEST AND SOUTH CENTRAL LOUISIANA

CITY           SKY/WX    TMP DP  RH WIND       PRES   REMARKS
SULPHUR        CLOUDY    58  55  89 NE8       30.08S
LAKE CHARLES   CLOUDY    56  52  86 E8        30.08F
CHENNAULT INT  CLOUDY    55  52  91 NE6       30.08F
CAMERON PHI    CLOUDY    57  55  94 NE8       30.10R FOG
DEQUINCY       CLOUDY    54  54 100 N3        30.08F
JENNINGS       CLOUDY    55  53  92 NE9       30.07F
LAFAYETTE      CLOUDY    57  54  89 NE3       30.09F
NEW IBERIA     CLOUDY    61  56  83 E9        30.10F
ABBEVILLE      CLOUDY    59  56  91 E5        30.07F
PATTERSON      CLOUDY    59  57  94 E7        30.11F
SALT POINT       N/A     63  59  87 VRB3      30.08F
$$

SELECTED SITES ACROSS THE REGION

CITY           SKY/WX    TMP DP  RH WIND       PRES   REMARKS
HOUSTON BUSH   LGT RAIN  59  58  96 E10       30.04F FOG
HOUSTON HOBBY  LGT RAIN  61  59  93 E12       30.02F FOG
GALVESTON      CLOUDY    61  61 100 E14       30.01F
COLLEGE STAT   CLOUDY    53  52  96 N14       30.07F FOG
CONROE         LGT RAIN  56  55  97 E8        30.04F FOG
HUNTSVILLE     LGT RAIN  55  53  93 NE6       30.06F
LUFKIN         CLOUDY    56  49  77 NE7       30.11F
SHREVEPORT     CLOUDY    51  47  86 E9        30.14F
MONROE         CLOUDY    47  46  97 N6        30.20S
NATCHEZ MS     CLOUDY    48  46  93 NE5       30.15F
BATON ROUGE    CLOUDY    55  53  93 E8        30.11F
N.O. INTL ARPT CLOUDY    58  53  84 E8        30.12F
SLIDELL        CLOUDY    56  51  84 NE5       30.14F
$$

MARINE REPORTS

STATION/POSITION TIME  TEMP    WIND        PRES    VSBY  WAVE
                       AIR SEA DIR/SP/G                  HT/PER
                 (UTC) (F)     (DEG/KT/KT) (MB)    (MI)  (FT/S)
BUOY 30 S HIGH I 0600   62 65   80/ 17/ 19 1015.9F         4/ 4
SEA RIM ST PARK  0600   57      40/  4/  6 1018.3F
PORT ARTHUR      0600      62   90/  8/ 10 1017.4F
SABINE PASS N    0600   58 62   80/  9/ 12 1017.1F
TEXAS POINT      NOT AVBL
CALCASIEU PASS   0600   57 60   60/  8/ 10   N/A
LK CHARLES BEACH 0600   56 62              1018.6S
MARSH ISLAND     NOT AVBL
FRESH WATER LOCK 0600   59 61   50/ 10/ 12 1017.8F
AMERADA PASS     0600   60 52   90/  6/  8 1019.1F
$$


USA.gov is the U.S. government's official web portal to all federal, state and local government web resources and services.